EDT,Max TemperatureF,Mean TemperatureF,Min TemperatureF,Max Dew PointF,MeanDew PointF,Min DewpointF,Max Humidity, Mean Humidity, Min Humidity, Max Sea Level PressureIn, Mean Sea Level PressureIn, Min Sea Level PressureIn, Max VisibilityMiles, Mean VisibilityMiles, Min VisibilityMiles, Max Wind SpeedMPH, Mean Wind SpeedMPH, Max Gust SpeedMPH,PrecipitationIn, CloudCover, Events, WindDirDegrees
2012-5-1,78,69,60,63,59,55,94,69,44,30.21,30.15,30.10,10,10,10,14,7,22,0.00,3,Rain-Thunderstorm,227
2012-5-2,82,73,64,64,62,59,88,70,48,30.23,30.18,30.12,10,10,10,13,7,18,0.00,1,,226
2012-5-3,82,71,60,64,62,59,100,72,48,30.27,30.19,30.15,10,10,7,9,3,,0.00,2,,272
2012-5-4,77,68,60,64,62,59,100,84,61,30.18,30.12,30.04,10,10,7,15,6,22,0.09,5,Rain-Thunderstorm,227
2012-5-5,69,64,59,64,62,59,100,96,73,30.07,30.03,30.00,10,9,2,22,6,36,0.14,6,Rain,275
2012-5-6,78,66,55,66,62,55,100,83,50,30.14,30.07,30.04,10,7,0,9,2,,0.00,4,Fog,9
2012-5-7,77,70,62,61,60,59,88,75,54,30.07,30.01,29.94,10,10,10,13,7,20,0.00,3,,185
2012-5-8,69,64,60,63,61,57,100,88,73,29.98,29.95,29.91,10,10,5,16,9,23,0.02,7,Rain,230
2012-5-9,62,58,53,61,53,43,100,86,55,29.97,29.90,29.82,10,8,0,12,3,20,0.02,6,Fog-Rain,315
2012-5-10,62,54,46,46,43,37,93,67,45,30.07,29.94,29.87,10,10,10,12,6,17,0.00,4,,315
2012-5-11,69,56,42,43,39,36,87,55,31,30.26,30.18,30.08,10,10,10,8,3,,0.00,0,,17
2012-5-12,73,62,50,55,48,36,82,61,47,30.35,30.29,30.25,10,10,10,8,3,,0.00,4,,180
2012-5-13,64,60,55,57,55,52,100,83,64,30.27,30.18,30.10,10,10,7,18,7,24,0.10,7,Rain,173
2012-5-14,66,60,55,63,58,55,100,98,77,30.09,30.04,30.01,10,7,0,9,3,,0.80,8,Fog-Rain-Thunderstorm,356
2012-5-15,68,62,55,61,59,55,100,95,78,30.09,30.06,30.03,10,6,0,8,3,,0.00,7,Fog-Rain-Thunderstorm,7
2012-5-16,75,63,51,59,54,50,100,76,47,30.10,30.06,30.02,10,7,0,8,2,,0.00,2,Fog,317
2012-5-17,75,64,53,61,55,50,100,72,50,30.14,30.09,30.05,10,10,7,12,3,16,0.00,1,Thunderstorm,18
2012-5-18,73,64,55,63,59,55,100,83,61,30.17,30.14,30.10,10,10,7,7,2,,0.02,2,Rain-Thunderstorm,183
2012-5-19,77,65,53,61,58,54,100,75,54,30.23,30.19,30.15,10,10,7,9,4,,0.00,1,,134
2012-5-20,78,69,60,55,52,50,82,57,39,30.25,30.19,30.14,10,10,10,9,2,,0.00,1,,38
2012-5-21,78,68,57,61,55,50,94,72,44,30.14,30.07,30.00,10,10,10,13,3,,0.00,3,Rain-Thunderstorm,231
2012-5-22,68,62,55,63,59,55,100,96,78,30.02,29.98,29.95,10,6,0,9,2,,0.12,8,Fog-Rain-Thunderstorm,3
2012-5-23,69,64,59,64,61,59,100,95,78,30.01,29.96,29.92,10,5,0,9,4,,0.04,7,Fog-Rain-Thunderstorm,25
2012-5-24,77,67,57,64,59,54,100,79,44,30.11,30.04,29.97,10,9,0,14,4,17,0.01,3,Fog,185
2012-5-25,80,70,60,64,60,57,94,68,51,30.23,30.19,30.10,10,10,10,10,5,,0.00,2,,197
2012-5-26,86,73,60,66,62,57,94,67,45,30.30,30.25,30.21,10,10,10,8,2,,0.00,1,,6
2012-5-27,87,76,66,68,64,61,88,66,45,30.24,30.20,30.15,10,10,10,8,1,,0.00,1,,158
2012-5-28,86,75,64,64,62,61,88,65,43,30.16,30.12,30.05,10,10,10,10,6,,0.00,1,,174
2012-5-29,82,73,62,68,64,61,100,81,58,30.07,30.00,29.93,10,9,1,16,6,30,0.03,4,Rain-Thunderstorm,203
2012-5-30,80,70,60,64,59,48,100,73,34,29.98,29.96,29.93,10,7,0,13,3,21,0.00,4,Fog,324
2012-5-31,82,68,53,59,55,52,100,63,39,29.98,29.94,29.87,10,10,10,12,4,24,0.00,2,Rain-Thunderstorm,214